| time (UTC) | temp C | wind direction | speed KPH | gust KPH | rain 1hr cm | rain 24hr cm | rain mn cm | humidity % | barometer mb |
| 20260507221802 | 10 | 197 | 6.4 | 12.9 | 0.00 | 0.00 | 0.00 | 74 | |
| 20260507220902 | 10 | 185 | 6.4 | 12.9 | 0.00 | 0.00 | 0.00 | 74 | |
| 20260507220002 | 10 | 181 | 8.0 | 20.9 | 0.00 | 0.00 | 0.00 | 73 | |
| 20260507215402 | 10 | 166 | 6.4 | 12.9 | 0.00 | 0.00 | 0.00 | 73 | |
| 20260507214502 | 10 | 166 | 8.0 | 19.3 | 0.00 | 0.00 | 0.00 | 73 | |
| 20260507213602 | 10 | 154 | 8.0 | 20.9 | 0.00 | 0.00 | 0.00 | 74 | |
| 20260507212702 | 10 | 147 | 6.4 | 17.7 | 0.00 | 0.00 | 0.00 | 74 | |
| 20260507211802 | 10 | 156 | 6.4 | 12.9 | 0.00 | 0.00 | 0.00 | 74 | |
| 20260507210923 | 10 | 159 | 6.4 | 17.7 | 0.00 | 0.00 | 0.00 | 74 | |
| 20260507210002 | 10 | 160 | 8.0 | 22.5 | 0.00 | 0.00 | 0.00 | 74 | |
| 20260507205402 | 10 | 158 | 8.0 | 22.5 | 0.00 | 0.00 | 0.00 | 74 | |
| 20260507204502 | 10 | 155 | 8.0 | 19.3 | 0.00 | 0.00 | 0.00 | 74 | |
| 20260507203602 | 10 | 153 | 6.4 | 17.7 | 0.00 | 0.00 | 0.00 | 74 | |
| 20260507202702 | 10 | 153 | 6.4 | 17.7 | 0.00 | 0.00 | 0.00 | 74 | |
| 20260507201802 | 10 | 165 | 4.8 | 11.3 | 0.00 | 0.00 | 0.00 | 74 | |
| 20260507200902 | 10 | 167 | 4.8 | 9.7 | 0.00 | 0.00 | 0.00 | 74 | |
| 20260507200002 | 10 | 170 | 4.8 | 12.9 | 0.00 | 0.00 | 0.00 | 73 | |
| 20260507195402 | 10 | 181 | 6.4 | 12.9 | 0.00 | 0.00 | 0.00 | 73 | |
| 20260507194502 | 10 | 163 | 3.2 | 11.3 | 0.00 | 0.00 | 0.00 | 73 | |
| 20260507193602 | 10 | 154 | 3.2 | 11.3 | 0.00 | 0.00 | 0.00 | 72 | |
| 20260507192702 | 10 | 165 | 4.8 | 9.7 | 0.00 | 0.00 | 0.00 | 72 | |
| 20260507191802 | 11 | 159 | 4.8 | 9.7 | 0.00 | 0.00 | 0.00 | 71 | |
| 20260507190902 | 11 | 186 | 3.2 | 9.7 | 0.00 | 0.00 | 0.00 | 70 | |
| 20260507190003 | 11 | 196 | 4.8 | 11.3 | 0.00 | 0.00 | 0.00 | 70 | |
| 20260507185423 | 11 | 196 | 6.4 | 11.3 | 0.00 | 0.00 | 0.00 | 70 | |
| 20260507184502 | 11 | 195 | 9.7 | 17.7 | 0.00 | 0.00 | 0.00 | 69 | |
| 20260507183602 | 11 | 192 | 9.7 | 19.3 | 0.00 | 0.00 | 0.00 | 69 | |
| 20260507182702 | 11 | 186 | 9.7 | 25.7 | 0.00 | 0.00 | 0.00 | 68 | |
| 20260507181802 | 11 | 190 | 11.3 | 27.4 | 0.00 | 0.00 | 0.00 | 68 | |
| 20260507180902 | 11 | 178 | 11.3 | 25.7 | 0.00 | 0.00 | 0.00 | 67 | |
| 20260507180002 | 11 | 175 | 9.7 | 22.5 | 0.00 | 0.00 | 0.00 | 67 | |
| 20260507175402 | 12 | 180 | 9.7 | 22.5 | 0.00 | 0.00 | 0.00 | 66 | |
| 20260507174502 | 12 | 191 | 8.0 | 20.9 | 0.00 | 0.00 | 0.00 | 67 | |
| 20260507173603 | 12 | 183 | 9.7 | 27.4 | 0.00 | 0.00 | 0.00 | 65 | |
| 20260507172723 | 12 | 196 | 17.7 | 35.4 | 0.00 | 0.00 | 0.00 | 63 | |
| 20260507171802 | 12 | 193 | 20.9 | 41.8 | 0.00 | 0.00 | 0.00 | 62 | |
| 20260507170923 | 12 | 193 | 14.5 | 41.8 | 0.00 | 0.00 | 0.00 | 63 | |
| 20260507170002 | 12 | 190 | 16.1 | 29.0 | 0.00 | 0.00 | 0.00 | 63 | |
| 20260507165402 | 12 | 198 | 16.1 | 38.6 | 0.00 | 0.00 | 0.00 | 63 | |
| 20260507164502 | 12 | 196 | 12.9 | 30.6 | 0.00 | 0.00 | 0.00 | 65 | |
| 20260507163602 | 12 | 197 | 12.9 | 30.6 | 0.00 | 0.00 | 0.00 | 64 | |
| 20260507162702 | 12 | 200 | 16.1 | 37.0 | 0.00 | 0.00 | 0.00 | 63 | |
| 20260507161802 | 12 | 200 | 16.1 | 35.4 | 0.00 | 0.00 | 0.00 | 64 | |
| 20260507160902 | 12 | 194 | 14.5 | 32.2 | 0.00 | 0.00 | 0.00 | 63 | |
| 20260507160023 | 12 | 192 | 12.9 | 32.2 | 0.00 | 0.00 | 0.00 | 64 | |
| 20260507155402 | 12 | 196 | 11.3 | 20.9 | 0.00 | 0.00 | 0.00 | 65 | |
| 20260507154502 | 12 | 194 | 11.3 | 27.4 | 0.00 | 0.00 | 0.00 | 66 | |
| 20260507153603 | 12 | 197 | 12.9 | 27.4 | 0.00 | 0.00 | 0.00 | 66 | |
| 20260507152702 | 12 | 196 | 14.5 | 32.2 | 0.00 | 0.00 | 0.00 | 67 | |
| 20260507151802 | 12 | 199 | 11.3 | 22.5 | 0.00 | 0.00 | 0.00 | 68 | |
| 20260507150902 | 12 | 199 | 14.5 | 29.0 | 0.00 | 0.00 | 0.00 | 68 | |
| 20260507150002 | 12 | 209 | 14.5 | 27.4 | 0.00 | 0.00 | 0.00 | 67 | |
| 20260507145403 | 12 | 207 | 17.7 | 29.0 | 0.00 | 0.00 | 0.00 | 67 | |
| 20260507144502 | 12 | 203 | 11.3 | 22.5 | 0.00 | 0.00 | 0.00 | 67 | |
| 20260507143602 | 11 | 203 | 16.1 | 30.6 | 0.00 | 0.00 | 0.00 | 69 | |
| 20260507142703 | 11 | 199 | 16.1 | 30.6 | 0.00 | 0.00 | 0.00 | 68 | |
| 20260507141802 | 11 | 194 | 14.5 | 30.6 | 0.00 | 0.00 | 0.00 | 68 | |
| 20260507140903 | 11 | 200 | 14.5 | 30.6 | 0.00 | 0.00 | 0.00 | 68 | |
| 20260507140002 | 11 | 200 | 16.1 | 30.6 | 0.00 | 0.00 | 0.00 | 68 | |
| 20260507135423 | 11 | 196 | 16.1 | 29.0 | 0.00 | 0.00 | 0.00 | 66 | |
| 20260507134502 | 12 | 198 | 14.5 | 25.7 | 0.00 | 0.00 | 0.00 | 67 | |
| 20260507133602 | 12 | 208 | 16.1 | 30.6 | 0.00 | 0.00 | 0.00 | 65 | |
| 20260507132724 | 12 | 210 | 14.5 | 30.6 | 0.00 | 0.00 | 0.00 | 66 | |
| 20260507131802 | 12 | 215 | 17.7 | 30.6 | 0.00 | 0.00 | 0.00 | 65 | |
| 20260507130903 | 12 | 207 | 11.3 | 25.7 | 0.00 | 0.00 | 0.00 | 66 | |
| 20260507130003 | 12 | 257 | 8.0 | 12.9 | 0.00 | 0.00 | 0.00 | 69 | |
| 20260507125423 | 11 | 240 | 9.7 | 17.7 | 0.00 | 0.00 | 0.00 | 70 | |
| 20260507124523 | 11 | 230 | 14.5 | 20.9 | 0.00 | 0.00 | 0.00 | 67 | |
| 20260507123602 | 11 | 207 | 11.3 | 20.9 | 0.00 | 0.00 | 0.00 | 64 | |
| 20260507122703 | 12 | 211 | 8.0 | 25.7 | 0.00 | 0.00 | 0.00 | 67 | |
| 20260507121803 | 11 | 185 | 8.0 | 27.4 | 0.00 | 0.00 | 0.00 | 67 | |
| 20260507120902 | 11 | 177 | 11.3 | 27.4 | 0.00 | 0.00 | 0.00 | 68 | |
| 20260507120003 | 12 | 175 | 12.9 | 27.4 | 0.00 | 0.00 | 0.00 | 64 | |
| 20260507115402 | 12 | 172 | 9.7 | 27.4 | 0.00 | 0.00 | 0.00 | 65 | |
| 20260507114524 | 12 | 182 | 8.0 | 20.9 | 0.00 | 0.00 | 0.00 | 65 | |
| 20260507113603 | 12 | 178 | 9.7 | 22.5 | 0.00 | 0.00 | 0.00 | 68 | |
| 20260507112702 | 12 | 165 | 9.7 | 27.4 | 0.00 | 0.00 | 0.00 | 67 | |
| 20260507111803 | 11 | 184 | 14.5 | 27.4 | 0.00 | 0.00 | 0.00 | 67 | |
| 20260507110902 | 12 | 179 | 9.7 | 19.3 | 0.00 | 0.00 | 0.00 | 67 | |
| 20260507110003 | 12 | 184 | 11.3 | 22.5 | 0.00 | 0.00 | 0.00 | 67 | |
| 20260507105402 | 11 | 187 | 12.9 | 29.0 | 0.00 | 0.00 | 0.00 | 68 | |
| 20260507104503 | 11 | 175 | 12.9 | 29.0 | 0.00 | 0.00 | 0.00 | 69 | |
| 20260507103602 | 11 | 164 | 11.3 | 30.6 | 0.00 | 0.00 | 0.00 | 68 | |
| 20260507102702 | 11 | 168 | 11.3 | 27.4 | 0.00 | 0.00 | 0.00 | 69 | |
| 20260507101802 | 10 | 167 | 11.3 | 25.7 | 0.00 | 0.00 | 0.00 | 69 | |
| 20260507100903 | 10 | 172 | 12.9 | 29.0 | 0.00 | 0.00 | 0.00 | 69 | |
| 20260507100023 | 10 | 167 | 12.9 | 27.4 | 0.00 | 0.00 | 0.00 | 69 | |
| 20260507095403 | 10 | 166 | 12.9 | 29.0 | 0.00 | 0.00 | 0.00 | 69 | |
| 20260507094502 | 10 | 179 | 16.1 | 32.2 | 0.00 | 0.00 | 0.00 | 69 | |
| 20260507093603 | 10 | 184 | 17.7 | 38.6 | 0.00 | 0.00 | 0.00 | 68 | |
| 20260507092703 | 10 | 185 | 16.1 | 38.6 | 0.00 | 0.00 | 0.00 | 69 | |
| 20260507091803 | 10 | 163 | 14.5 | 32.2 | 0.00 | 0.00 | 0.00 | 68 | |
| 20260507090903 | 10 | 165 | 14.5 | 29.0 | 0.00 | 0.00 | 0.00 | 68 | |
| 20260507090006 | 10 | 160 | 16.1 | 35.4 | 0.00 | 0.00 | 0.00 | 68 | |
| 20260507085403 | 10 | 161 | 16.1 | 37.0 | 0.00 | 0.00 | 0.00 | 67 | |
| 20260507084524 | 10 | 159 | 14.5 | 37.0 | 0.00 | 0.00 | 0.00 | 67 | |
| 20260507083603 | 10 | 165 | 16.1 | 32.2 | 0.00 | 0.00 | 0.00 | 66 | |
| 20260507082703 | 10 | 167 | 14.5 | 38.6 | 0.00 | 0.00 | 0.00 | 66 | |
| 20260507081803 | 10 | 156 | 17.7 | 37.0 | 0.00 | 0.00 | 0.00 | 66 | |
| 20260507080903 | 10 | 158 | 12.9 | 29.0 | 0.00 | 0.00 | 0.00 | 67 | |
| 20260507080003 | 9 | 160 | 14.5 | 30.6 | 0.00 | 0.00 | 0.00 | 67 | |
| 20260507075403 | 10 | 158 | 12.9 | 27.4 | 0.00 | 0.00 | 0.00 | 67 | |
| 20260507074502 | 9 | 155 | 14.5 | 35.4 | 0.00 | 0.00 | 0.00 | 68 | |
| 20260507073602 | 8 | 160 | 14.5 | 41.8 | 0.00 | 0.00 | 0.00 | 68 | |
| 20260507072702 | 8 | 162 | 14.5 | 30.6 | 0.00 | 0.00 | 0.00 | 68 | |
| 20260507071824 | 8 | 160 | 16.1 | 37.0 | 0.00 | 0.00 | 0.00 | 68 | |
| 20260507070903 | 8 | 159 | 14.5 | 29.0 | 0.00 | 0.00 | 0.00 | 70 | |
| 20260507070004 | 7 | 157 | 12.9 | 29.0 | 0.00 | 0.00 | 0.00 | 70 | |
| 20260507065403 | 7 | 165 | 11.3 | 29.0 | 0.00 | 0.00 | 0.00 | 70 | |
| 20260507064503 | 7 | 159 | 11.3 | 37.0 | 0.00 | 0.00 | 0.00 | 71 | |
| 20260507063624 | 7 | 160 | 11.3 | 22.5 | 0.00 | 0.00 | 0.00 | 71 | |
| 20260507062703 | 7 | 154 | 8.0 | 25.7 | 0.00 | 0.00 | 0.00 | 72 | |
| 20260507061824 | 6 | 161 | 6.4 | 19.3 | 0.00 | 0.00 | 0.00 | 74 | |
| 20260507060903 | 6 | 189 | 4.8 | 11.3 | 0.00 | 0.00 | 0.00 | 76 | |
| 20260507060003 | 5 | 219 | 4.8 | 12.9 | 0.00 | 0.00 | 0.00 | 77 | |
| 20260507055403 | 5 | 266 | 3.2 | 11.3 | 0.00 | 0.00 | 0.00 | 78 | |
| 20260507054503 | 5 | 289 | 1.6 | 6.4 | 0.00 | 0.00 | 0.00 | 79 | |
| 20260507053603 | 5 | 289 | 1.6 | 8.0 | 0.00 | 0.00 | 0.00 | 79 | |
| 20260507052703 | 5 | 322 | 3.2 | 8.0 | 0.00 | 0.00 | 0.00 | 79 | |
| 20260507051803 | 5 | 355 | 1.6 | 3.2 | 0.00 | 0.00 | 0.00 | 80 | |
| 20260507050924 | 4 | 359 | 4.8 | 9.7 | 0.00 | 0.00 | 0.00 | 80 | |
| 20260507050003 | 4 | 10 | 6.4 | 9.7 | 0.00 | 0.00 | 0.00 | 80 | |
| 20260507045403 | 4 | 5 | 6.4 | 11.3 | 0.00 | 0.00 | 0.00 | 80 | |
| 20260507044503 | 5 | 352 | 4.8 | 11.3 | 0.00 | 0.00 | 0.00 | 79 | |
| 20260507043603 | 5 | 346 | 1.6 | 6.4 | 0.00 | 0.00 | 0.00 | 79 | |
| 20260507042703 | 5 | 296 | 3.2 | 8.0 | 0.00 | 0.00 | 0.00 | 78 | |
| 20260507041803 | 5 | 267 | 3.2 | 8.0 | 0.00 | 0.00 | 0.00 | 77 | |
| 20260507040903 | 5 | 306 | 4.8 | 9.7 | 0.00 | 0.00 | 0.00 | 78 | |
| 20260507040003 | 5 | 357 | 3.2 | 8.0 | 0.00 | 0.00 | 0.00 | 77 | |
| 20260507035403 | 5 | 329 | 3.2 | 8.0 | 0.00 | 0.00 | 0.00 | 76 | |
| 20260507034503 | 5 | 309 | 1.6 | 8.0 | 0.00 | 0.00 | 0.00 | 76 | |
| 20260507033603 | 6 | 299 | 3.2 | 8.0 | 0.00 | 0.00 | 0.00 | 75 | |
| 20260507032703 | 6 | 197 | 3.2 | 16.1 | 0.00 | 0.00 | 0.00 | 74 | |
| 20260507031803 | 6 | 177 | 4.8 | 20.9 | 0.00 | 0.00 | 0.00 | 74 | |
| 20260507030903 | 6 | 358 | 4.8 | 8.0 | 0.00 | 0.00 | 0.00 | 74 | |
| 20260507030003 | 6 | 144 | 6.4 | 19.3 | 0.00 | 0.00 | 0.00 | 74 | |
| 20260507025403 | 6 | 244 | 4.8 | 19.3 | 0.00 | 0.00 | 0.00 | 75 | |
| 20260507024524 | 6 | 182 | 4.8 | 17.7 | 0.00 | 0.00 | 0.00 | 75 | |
| 20260507023603 | 6 | 169 | 4.8 | 17.7 | 0.00 | 0.00 | 0.00 | 74 | |
| 20260507022703 | 6 | 177 | 4.8 | 22.5 | 0.00 | 0.00 | 0.00 | 74 | |
| 20260507021803 | 6 | 164 | 3.2 | 8.0 | 0.00 | 0.00 | 0.00 | 74 | |
| 20260507020903 | 6 | 139 | 4.8 | 11.3 | 0.00 | 0.00 | 0.00 | 75 | |
| 20260507020003 | 6 | 109 | 4.8 | 19.3 | 0.00 | 0.00 | 0.00 | 76 | |
| 20260507015403 | 5 | 119 | 3.2 | 11.3 | 0.00 | 0.00 | 0.00 | 77 | |
| 20260507014503 | 5 | 145 | 3.2 | 12.9 | 0.00 | 0.00 | 0.00 | 77 | |
| 20260507013603 | 5 | 144 | 3.2 | 8.0 | 0.00 | 0.00 | 0.00 | 77 | |
| 20260507012724 | 5 | 145 | 1.6 | 6.4 | 0.00 | 0.00 | 0.00 | 77 | |
| 20260507011803 | 5 | 141 | 3.2 | 8.0 | 0.00 | 0.00 | 0.00 | 77 | |
| 20260507010004 | 4 | 105 | 1.6 | 6.4 | 0.00 | 0.00 | 0.00 | 77 | |
| 20260507005424 | 4 | 92 | 1.6 | 6.4 | 0.00 | 0.00 | 0.00 | 77 | |
| 20260507004503 | 4 | 77 | 1.6 | 8.0 | 0.00 | 0.00 | 0.00 | 78 | |
| 20260507003603 | 3 | 180 | 1.6 | 6.4 | 0.00 | 0.00 | 0.00 | 79 | |
| 20260507002703 | 3 | 180 | 1.6 | 6.4 | 0.00 | 0.00 | 0.00 | 78 | |
| 20260507001803 | 4 | 158 | 1.6 | 6.4 | 0.00 | 0.00 | 0.00 | 76 | |
| 20260507000903 | 4 | 148 | 3.2 | 6.4 | 0.00 | 0.00 | 0.00 | 75 | |
| 20260507000024 | 4 | 148 | 1.6 | 6.4 | 0.00 | 0.00 | 0.00 | 74 | |
| 20260506235404 | 4 | 148 | 1.6 | 3.2 | 0.00 | 0.00 | 0.00 | 74 | |
| 20260506234503 | 4 | 144 | 1.6 | 6.4 | 0.00 | 0.00 | 0.00 | 75 | |
| 20260506233602 | 4 | 137 | 0.0 | 3.2 | 0.00 | 0.00 | 0.00 | 74 | |
| 20260506232702 | 4 | 138 | 1.6 | 3.2 | 0.00 | 0.00 | 0.00 | 74 | |
| 20260506231823 | 4 | 138 | 1.6 | 6.4 | 0.00 | 0.00 | 0.00 | 74 | |
| 20260506230902 | 4 | 138 | 1.6 | 6.4 | 0.00 | 0.00 | 0.00 | 73 | |
| 20260506230002 | 5 | 137 | 1.6 | 8.0 | 0.00 | 0.00 | 0.00 | 73 | |
| 20260506225402 | 5 | 126 | 1.6 | 8.0 | 0.00 | 0.00 | 0.00 | 73 | |
| 20260506224502 | 5 | 115 | 1.6 | 8.0 | 0.00 | 0.00 | 0.00 | 72 | |
| 20260506223602 | 5 | 5 | 1.6 | 8.0 | 0.00 | 0.00 | 0.00 | 72 | |
| 20260506222702 | 5 | 304 | 0.0 | 1.6 | 0.00 | 0.00 | 0.00 | 71 |